Location: Coupvray
(48.8929°N, 2.7967°E)
Time: 09:54:32
(UTC+00:00)

Altair 2 - Pass Details

Date: 25 January 2021
Orbit: 837 x 949 km, 90.2° (Epoch: 26 February)

Event Time Altitude Azimuth Distance (km) Brightness Sun altitude
Rises 06:06:09 0° 0° (N) 3,463 10.8 -13.3°
Reaches altitude 10° 06:08:32 10° 359° (N) 2,537 10.0 -12.9°
Maximum altitude 06:14:14 78° 275° (W) 917 7.8 -12.0°
Drops below altitude 10° 06:20:05 10° 189° (S) 2,595 10.3 -11.1°
Sets 06:22:33 0° 189° (S) 3,548 11.0 -10.7°
